VERONIKA

Last updated on Thu Nov 21 2024 00:03:40 GMT+0000 (Coordinated Universal Time)

1 58261U 23174F 24325.54975536 .00049693 00000+0 14962-2 0 9993 2 58261 97.4431 39.9494 0009462 52.1680 308.0418 15.34144543 57564
UTC large
Height (km)
Speed (km/s)
/
Latitude / Longitude
Inclination (degrees)
Orbital Period (minutes)
Azimuth
Elevation
Range (km)
Doppler Factor

Next 0 passes for location: London (51.5072 / 0.1276)

Sorry there are no passes over London.